{"data":{"norad_id":60488,"intl_designator":"2024-149W","name":"FLOCK 4BE-31","alt_names":[],"object_type":"PAYLOAD","status":"ACTIVE","operator":null,"country":"US","launch_date":"2024-08-16","launch_site_code":"AFWTR","launch_vehicle":null,"mission":null,"orbit_class":"UNKNOWN","rcs_meters":null,"size_class":null,"mass_kg":null,"dimensions":null,"purposes":["earth_obs"],"wikipedia_slug":null,"has_3d_model":false,"image_url":null,"decayed_at":null,"tle_current":{"epoch":"2026-09-19T04:48:52.969248Z","epoch_age_seconds":126599,"freshness":"FRESH","line1":"1 60488U 24149W   26262.20061307  .00033749  00000+0  64192-3 0  9993","line2":"2 60488  97.3744 349.1014 0001352 278.0648  82.0449 15.48169474116903","mean_motion":15.48169474,"eccentricity":0.0001352,"inclination_deg":97.3744,"raan_deg":349.1014,"arg_perigee_deg":278.0648,"mean_anomaly_deg":82.0449,"bstar":0.00064192,"rev_number":11690,"period_min":93.013072805232,"perigee_km":421.16170229186,"apogee_km":423.00048126388,"semimajor_km":6800.2180917779,"source":"CELESTRAK","updated_at":"2026-09-20T09:00:34.712319Z"}}}